| time (UTC) | temp F | wind direction | speed knots | gust knots | rain 1hr in | rain 24hr in | rain mn in | humidity % | barometer mb |
| 20260906145924 | 64 | 147 | 2.6 | 7.0 | 0.00 | 0.01 | 0.00 | 77 | 1019.9 |
| 20260906145405 | 64 | 123 | 1.7 | 7.0 | 0.00 | 0.01 | 0.00 | 77 | 1019.9 |
| 20260906144912 | 65 | 118 | 1.7 | 7.0 | 0.00 | 0.01 | 0.00 | 77 | 1019.9 |
| 20260906144416 | 65 | 162 | 1.7 | 5.2 | 0.00 | 0.01 | 0.00 | 77 | 1019.9 |
| 20260906143925 | 65 | 191 | 1.7 | 4.3 | 0.00 | 0.01 | 0.00 | 77 | 1019.9 |
| 20260906143412 | 65 | 125 | 1.7 | 4.3 | 0.00 | 0.01 | 0.00 | 77 | 1019.9 |
| 20260906142855 | 65 | 133 | 1.7 | 4.3 | 0.00 | 0.01 | 0.00 | 77 | 1020.0 |
| 20260906142404 | 65 | 158 | 1.7 | 5.2 | 0.00 | 0.01 | 0.00 | 77 | 1020.0 |
| 20260906141855 | 65 | 175 | 1.7 | 6.1 | 0.00 | 0.01 | 0.00 | 76 | 1020.0 |
| 20260906141404 | 66 | 117 | 1.7 | 7.0 | 0.00 | 0.01 | 0.00 | 76 | 1020.0 |
| 20260906141113 | 66 | 163 | 2.6 | 7.0 | 0.00 | 0.01 | 0.00 | 76 | 1020.1 |
| 20260906140349 | 66 | 143 | 1.7 | 7.0 | 0.00 | 0.01 | 0.00 | 76 | 1020.0 |
| 20260906135907 | 66 | 185 | 2.6 | 10.4 | 0.00 | 0.01 | 0.01 | 76 | 1019.9 |
| 20260906135823 | 66 | 161 | 2.6 | 10.4 | 0.00 | 0.01 | 0.01 | 76 | 1020.0 |
| 20260906134755 | 66 | 151 | 3.5 | 10.4 | 0.00 | 0.01 | 0.01 | 76 | 1019.9 |
| 20260906134311 | 66 | 164 | 3.5 | 10.4 | 0.00 | 0.01 | 0.01 | 76 | 1019.9 |
| 20260906133726 | 67 | 275 | 3.5 | 9.6 | 0.00 | 0.01 | 0.01 | 76 | 1019.8 |
| 20260906133457 | 67 | 212 | 4.3 | 10.4 | 0.00 | 0.01 | 0.01 | 76 | 1019.8 |
| 20260906132952 | 67 | 105 | 3.5 | 10.4 | 0.00 | 0.01 | 0.01 | 76 | 1019.7 |
| 20260906132223 | 67 | 145 | 3.5 | 12.2 | 0.00 | 0.01 | 0.01 | 76 | 1019.7 |
| 20260906131746 | 67 | 159 | 4.3 | 12.2 | 0.00 | 0.01 | 0.01 | 75 | 1019.6 |
| 20260906131235 | 67 | 138 | 5.2 | 13.9 | 0.00 | 0.01 | 0.01 | 76 | 1019.5 |
| 20260906131001 | 67 | 143 | 4.3 | 13.9 | 0.00 | 0.01 | 0.01 | 76 | 1019.5 |
| 20260906130743 | 67 | 143 | 4.3 | 13.9 | 0.00 | 0.01 | 0.01 | 76 | 1019.5 |
| 20260906130537 | 67 | 128 | 3.5 | 10.4 | 0.00 | 0.01 | 0.01 | 76 | 1019.5 |
| 20260906130305 | 67 | 128 | 3.5 | 10.4 | 0.00 | 0.01 | 0.01 | 76 | 1019.5 |
| 20260906125450 | 67 | 126 | 4.3 | 12.2 | 0.00 | 0.01 | 0.01 | 76 | 1019.5 |
| 20260906125206 | 67 | 104 | 4.3 | 13.9 | 0.00 | 0.01 | 0.01 | 76 | 1019.5 |
| 20260906124422 | 67 | 148 | 5.2 | 13.9 | 0.00 | 0.01 | 0.01 | 76 | 1019.5 |
| 20260906123839 | 68 | 165 | 4.3 | 13.0 | 0.00 | 0.01 | 0.01 | 76 | 1019.5 |
| 20260906123404 | 68 | 132 | 3.5 | 12.2 | 0.00 | 0.01 | 0.01 | 76 | 1019.4 |
| 20260906122845 | 68 | 206 | 3.5 | 12.2 | 0.00 | 0.01 | 0.01 | 76 | 1019.4 |
| 20260906122414 | 68 | 130 | 4.3 | 10.4 | 0.00 | 0.01 | 0.01 | 76 | 1019.3 |
| 20260906122120 | 68 | 123 | 4.3 | 12.2 | 0.00 | 0.01 | 0.01 | 75 | 1019.2 |
| 20260906121430 | 68 | 124 | 5.2 | 12.2 | 0.00 | 0.01 | 0.01 | 75 | 1019.2 |
| 20260906121054 | 69 | 134 | 5.2 | 11.3 | 0.00 | 0.01 | 0.01 | 75 | 1019.1 |
| 20260906120916 | 69 | 131 | 6.1 | 14.8 | 0.00 | 0.01 | 0.01 | 74 | 1019.1 |
| 20260906115800 | 69 | 141 | 6.1 | 14.8 | 0.00 | 0.01 | 0.01 | 75 | 1019.0 |
| 20260906115624 | 69 | 123 | 6.1 | 14.8 | 0.00 | 0.01 | 0.01 | 76 | 1019.0 |
| 20260906114737 | 69 | 121 | 7.0 | 14.8 | 0.00 | 0.01 | 0.01 | 76 | 1018.8 |
| 20260906114205 | 69 | 126 | 6.1 | 13.9 | 0.00 | 0.01 | 0.01 | 76 | 1018.8 |
| 20260906113939 | 69 | 102 | 6.1 | 13.9 | 0.00 | 0.01 | 0.01 | 75 | 1018.7 |
| 20260906113446 | 69 | 133 | 6.1 | 13.9 | 0.00 | 0.01 | 0.01 | 75 | 1018.7 |
| 20260906112722 | 69 | 130 | 6.1 | 15.6 | 0.00 | 0.01 | 0.01 | 75 | 1018.5 |
| 20260906112233 | 69 | 115 | 6.1 | 15.6 | 0.00 | 0.01 | 0.01 | 75 | 1018.5 |
| 20260906111707 | 70 | 115 | 7.0 | 15.6 | 0.00 | 0.01 | 0.01 | 76 | 1018.4 |
| 20260906111203 | 70 | 133 | 7.0 | 15.6 | 0.00 | 0.01 | 0.01 | 77 | 1018.4 |
| 20260906110711 | 70 | 153 | 7.0 | 16.5 | 0.00 | 0.01 | 0.01 | 77 | 1018.3 |
| 20260906110200 | 70 | 129 | 7.0 | 17.4 | 0.00 | 0.01 | 0.01 | 77 | 1018.3 |
| 20260906105700 | 70 | 124 | 7.0 | 17.4 | 0.00 | 0.01 | 0.01 | 78 | 1018.1 |
| 20260906105204 | 70 | 110 | 7.0 | 16.5 | 0.00 | 0.01 | 0.01 | 78 | 1018.1 |
| 20260906104647 | 70 | 124 | 7.0 | 16.5 | 0.00 | 0.01 | 0.01 | 79 | 1017.9 |
| 20260906104143 | 71 | 134 | 7.0 | 15.6 | 0.00 | 0.01 | 0.01 | 80 | 1017.9 |
| 20260906103641 | 71 | 96 | 7.8 | 16.5 | 0.00 | 0.01 | 0.01 | 81 | 1017.7 |
| 20260906103203 | 71 | 160 | 7.8 | 15.6 | 0.00 | 0.01 | 0.01 | 81 | 1017.5 |
| 20260906103145 | 71 | 133 | 7.8 | 16.5 | 0.00 | 0.01 | 0.01 | 81 | 1017.6 |
| 20260906102442 | 71 | 98 | 7.8 | 16.5 | 0.00 | 0.01 | 0.01 | 81 | 1017.4 |
| 20260906101938 | 71 | 131 | 7.8 | 16.5 | 0.00 | 0.01 | 0.01 | 81 | 1017.3 |
| 20260906101408 | 71 | 104 | 7.8 | 15.6 | 0.00 | 0.01 | 0.01 | 81 | 1017.2 |
| 20260906101141 | 71 | 146 | 7.8 | 15.6 | 0.00 | 0.01 | 0.01 | 81 | 1017.2 |
| 20260906100142 | 71 | 114 | 7.8 | 17.4 | 0.00 | 0.01 | 0.01 | 81 | 1017.1 |
| 20260906095641 | 71 | 114 | 7.0 | 17.4 | 0.00 | 0.01 | 0.01 | 81 | 1016.9 |
| 20260906094801 | 71 | 150 | 7.0 | 18.2 | 0.00 | 0.01 | 0.01 | 80 | 1016.7 |
| 20260906094255 | 71 | 147 | 7.8 | 18.2 | 0.00 | 0.01 | 0.01 | 80 | 1016.8 |
| 20260906093755 | 71 | 123 | 7.0 | 19.1 | 0.00 | 0.01 | 0.01 | 80 | 1016.6 |
| 20260906093301 | 72 | 124 | 7.0 | 19.1 | 0.00 | 0.01 | 0.01 | 80 | 1016.3 |
| 20260906092755 | 72 | 125 | 7.0 | 15.6 | 0.00 | 0.01 | 0.01 | 81 | 1016.2 |
| 20260906092312 | 72 | 126 | 7.0 | 15.6 | 0.00 | 0.01 | 0.01 | 81 | 1016.0 |
| 20260906092127 | 73 | 130 | 7.0 | 13.0 | 0.00 | 0.01 | 0.01 | 81 | 1015.9 |
| 20260906091918 | 73 | 123 | 6.1 | 13.0 | 0.00 | 0.01 | 0.01 | 81 | 1015.7 |
| 20260906091839 | 73 | 130 | 7.0 | 13.0 | 0.00 | 0.01 | 0.01 | 81 | 1015.9 |
| 20260906091730 | 73 | 140 | 6.1 | 13.0 | 0.00 | 0.01 | 0.01 | 81 | 1015.8 |
| 20260906090856 | 73 | 125 | 6.1 | 13.0 | 0.00 | 0.01 | 0.01 | 81 | 1015.7 |
| 20260906090242 | 73 | 123 | 6.1 | 13.0 | 0.00 | 0.01 | 0.01 | 81 | 1015.7 |
| 20260906090028 | 73 | 135 | 5.2 | 13.0 | 0.00 | 0.01 | 0.01 | 81 | 1015.6 |
| 20260906085759 | 73 | 135 | 5.2 | 13.0 | 0.00 | 0.01 | 0.01 | 81 | 1015.6 |
| 20260906085242 | 73 | 98 | 4.3 | 13.9 | 0.00 | 0.01 | 0.01 | 81 | 1015.6 |
| 20260906084750 | 73 | 122 | 5.2 | 13.9 | 0.00 | 0.01 | 0.01 | 80 | 1015.5 |
| 20260906084241 | 73 | 118 | 4.3 | 10.4 | 0.00 | 0.01 | 0.01 | 80 | 1015.4 |
| 20260906083800 | 73 | 125 | 5.2 | 10.4 | 0.00 | 0.01 | 0.01 | 80 | 1015.2 |
| 20260906083247 | 72 | 191 | 5.2 | 10.4 | 0.00 | 0.01 | 0.01 | 81 | 1015.0 |
| 20260906082735 | 72 | 98 | 3.5 | 10.4 | 0.00 | 0.01 | 0.01 | 81 | 1014.8 |
| 20260906082233 | 72 | 132 | 2.6 | 9.6 | 0.00 | 0.01 | 0.01 | 81 | 1014.8 |
| 20260906081736 | 73 | 113 | 0.9 | 9.6 | 0.00 | 0.01 | 0.01 | 81 | 1014.6 |
| 20260906081243 | 73 | 21 | 0.0 | 1.7 | 0.00 | 0.01 | 0.01 | 80 | 1013.8 |
| 20260906080729 | 73 | 21 | 0.9 | 1.7 | 0.00 | 0.01 | 0.01 | 80 | 1013.7 |
| 20260906080227 | 74 | 21 | 0.9 | 3.5 | 0.00 | 0.01 | 0.01 | 79 | 1013.6 |
| 20260906075725 | 74 | 21 | 0.9 | 3.5 | 0.00 | 0.01 | 0.01 | 79 | 1013.5 |
| 20260906075223 | 74 | 349 | 0.9 | 4.3 | 0.00 | 0.01 | 0.01 | 78 | 1013.4 |
| 20260906074724 | 74 | 349 | 0.9 | 5.2 | 0.00 | 0.01 | 0.01 | 78 | 1013.3 |
| 20260906074215 | 75 | 56 | 0.9 | 5.2 | 0.00 | 0.01 | 0.01 | 77 | 1013.1 |
| 20260906073722 | 75 | 325 | 1.7 | 5.2 | 0.00 | 0.01 | 0.01 | 76 | 1013.2 |
| 20260906073224 | 75 | 352 | 1.7 | 5.2 | 0.00 | 0.01 | 0.01 | 76 | 1013.1 |
| 20260906072938 | 76 | 1 | 0.9 | 4.3 | 0.00 | 0.01 | 0.01 | 74 | 1013.0 |
| 20260906072212 | 76 | 25 | 1.7 | 4.3 | 0.00 | 0.01 | 0.01 | 74 | 1013.0 |
| 20260906071711 | 76 | 25 | 1.7 | 6.1 | 0.00 | 0.01 | 0.01 | 73 | 1012.9 |
| 20260906071213 | 77 | 343 | 2.6 | 6.1 | 0.00 | 0.01 | 0.01 | 73 | 1012.8 |
| 20260906070706 | 77 | 355 | 2.6 | 8.7 | 0.00 | 0.01 | 0.01 | 72 | 1012.8 |
| 20260906070200 | 78 | 3 | 1.7 | 8.7 | 0.00 | 0.01 | 0.01 | 71 | 1012.7 |
| 20260906065655 | 78 | 343 | 1.7 | 5.2 | 0.00 | 0.01 | 0.01 | 69 | 1012.7 |
| 20260906065217 | 79 | 46 | 1.7 | 5.2 | 0.00 | 0.01 | 0.01 | 68 | 1012.6 |
| 20260906064659 | 79 | 10 | 1.7 | 5.2 | 0.00 | 0.01 | 0.01 | 68 | 1012.4 |
| 20260906064135 | 80 | 355 | 1.7 | 6.1 | 0.00 | 0.01 | 0.01 | 67 | 1012.5 |
| 20260906063656 | 80 | 32 | 1.7 | 6.1 | 0.00 | 0.01 | 0.01 | 66 | 1012.5 |
| 20260906063137 | 80 | 355 | 2.6 | 7.8 | 0.00 | 0.01 | 0.01 | 65 | 1012.3 |
| 20260906062558 | 81 | 42 | 3.5 | 7.8 | 0.00 | 0.01 | 0.01 | 63 | 1012.3 |
| 20260906062106 | 81 | 359 | 2.6 | 7.8 | 0.00 | 0.01 | 0.01 | 62 | 1012.2 |
| 20260906061521 | 82 | 39 | 2.6 | 6.1 | 0.00 | 0.01 | 0.01 | 61 | 1012.2 |
| 20260906061247 | 82 | 9 | 3.5 | 7.8 | 0.00 | 0.01 | 0.01 | 60 | 1012.2 |
| 20260906060511 | 83 | 345 | 2.6 | 7.8 | 0.00 | 0.01 | 0.01 | 59 | 1012.3 |
| 20260906060016 | 83 | 301 | 1.7 | 6.1 | 0.00 | 0.01 | 0.01 | 59 | 1012.3 |
| 20260906055521 | 83 | 329 | 2.6 | 6.1 | 0.00 | 0.01 | 0.01 | 59 | 1012.0 |
| 20260906055035 | 83 | 340 | 1.7 | 6.1 | 0.00 | 0.01 | 0.01 | 60 | 1012.0 |
| 20260906054505 | 83 | 334 | 1.7 | 4.3 | 0.00 | 0.01 | 0.01 | 61 | 1012.1 |
| 20260906054016 | 83 | 62 | 1.7 | 4.3 | 0.00 | 0.01 | 0.01 | 60 | 1012.0 |
| 20260906053757 | 84 | 28 | 1.7 | 4.3 | 0.00 | 0.01 | 0.01 | 60 | 1012.2 |
| 20260906053016 | 84 | 321 | 1.7 | 4.3 | 0.00 | 0.01 | 0.01 | 59 | 1012.1 |
| 20260906052801 | 84 | 0 | 1.7 | 4.3 | 0.00 | 0.01 | 0.01 | 58 | 1012.2 |
| 20260906051958 | 84 | 24 | 1.7 | 4.3 | 0.00 | 0.01 | 0.01 | 58 | 1012.2 |
| 20260906051448 | 84 | 347 | 1.7 | 4.3 | 0.00 | 0.01 | 0.01 | 57 | 1012.2 |
| 20260906050946 | 85 | 59 | 2.6 | 5.2 | 0.00 | 0.01 | 0.01 | 58 | 1012.2 |
| 20260906050448 | 85 | 58 | 1.7 | 5.2 | 0.00 | 0.01 | 0.01 | 57 | 1012.1 |
| 20260906045941 | 85 | 43 | 1.7 | 6.1 | 0.00 | 0.01 | 0.01 | 58 | 1012.1 |
| 20260906045438 | 85 | 43 | 1.7 | 6.1 | 0.00 | 0.01 | 0.01 | 56 | 1012.2 |
| 20260906044938 | 85 | 68 | 1.7 | 4.3 | 0.00 | 0.01 | 0.01 | 55 | 1012.2 |
| 20260906044436 | 85 | 58 | 2.6 | 5.2 | 0.00 | 0.01 | 0.01 | 56 | 1012.0 |
| 20260906043936 | 85 | 346 | 2.6 | 5.2 | 0.00 | 0.01 | 0.01 | 55 | 1012.2 |
| 20260906043436 | 85 | 4 | 2.6 | 6.1 | 0.00 | 0.01 | 0.01 | 54 | 1012.2 |
| 20260906042934 | 85 | 68 | 1.7 | 6.1 | 0.00 | 0.01 | 0.01 | 55 | 1012.2 |
| 20260906042434 | 85 | 45 | 1.7 | 6.1 | 0.00 | 0.01 | 0.01 | 54 | 1012.2 |
| 20260906041934 | 85 | 3 | 1.7 | 6.1 | 0.00 | 0.01 | 0.01 | 55 | 1012.3 |
| 20260906041432 | 85 | 65 | 3.5 | 7.8 | 0.00 | 0.01 | 0.01 | 54 | 1012.2 |
| 20260906040930 | 85 | 4 | 3.5 | 7.8 | 0.00 | 0.01 | 0.01 | 53 | 1012.3 |
| 20260906040432 | 85 | 350 | 2.6 | 7.0 | 0.00 | 0.01 | 0.01 | 55 | 1012.2 |
| 20260906040137 | 85 | 54 | 2.6 | 7.8 | 0.00 | 0.01 | 0.01 | 54 | 1012.3 |
| 20260906035340 | 85 | 3 | 2.6 | 7.8 | 0.00 | 0.01 | 0.01 | 53 | 1012.3 |
| 20260906034815 | 85 | 61 | 2.6 | 7.8 | 0.00 | 0.01 | 0.01 | 56 | 1012.4 |
| 20260906034506 | 85 | 70 | 2.6 | 7.8 | 0.00 | 0.01 | 0.01 | 57 | 1012.5 |
| 20260906033719 | 85 | 41 | 2.6 | 6.1 | 0.00 | 0.01 | 0.01 | 56 | 1012.6 |
| 20260906033156 | 85 | 335 | 2.6 | 6.1 | 0.00 | 0.01 | 0.01 | 56 | 1012.7 |
| 20260906032624 | 85 | 20 | 3.5 | 8.7 | 0.00 | 0.01 | 0.01 | 55 | 1012.7 |
| 20260906032101 | 85 | 358 | 3.5 | 9.6 | 0.00 | 0.01 | 0.01 | 56 | 1012.8 |
| 20260906031539 | 85 | 349 | 2.6 | 8.7 | 0.00 | 0.01 | 0.01 | 57 | 1012.8 |
| 20260906031009 | 85 | 29 | 2.6 | 7.0 | 0.00 | 0.01 | 0.01 | 57 | 1012.9 |
| 20260906030441 | 85 | 43 | 2.6 | 7.0 | 0.00 | 0.01 | 0.01 | 57 | 1012.9 |
| 20260906025916 | 86 | 40 | 2.6 | 7.0 | 0.00 | 0.01 | 0.01 | 58 | 1013.0 |
| 20260906025349 | 86 | 59 | 1.7 | 6.1 | 0.00 | 0.01 | 0.01 | 56 | 1013.1 |
| 20260906025050 | 86 | 0 | 1.7 | 7.0 | 0.00 | 0.01 | 0.01 | 57 | 1013.2 |
| 20260906024300 | 86 | 351 | 2.6 | 7.0 | 0.00 | 0.01 | 0.01 | 57 | 1013.4 |
| 20260906023732 | 85 | 6 | 2.6 | 8.7 | 0.00 | 0.01 | 0.01 | 56 | 1013.4 |
| 20260906023202 | 85 | 64 | 2.6 | 8.7 | 0.00 | 0.01 | 0.01 | 57 | 1013.5 |
| 20260906022636 | 85 | 32 | 2.6 | 6.1 | 0.00 | 0.01 | 0.01 | 57 | 1013.5 |
| 20260906022111 | 85 | 54 | 2.6 | 8.7 | 0.00 | 0.01 | 0.01 | 60 | 1013.7 |
| 20260906021600 | 84 | 61 | 2.6 | 8.7 | 0.00 | 0.01 | 0.01 | 59 | 1013.8 |
| 20260906021100 | 85 | 317 | 2.6 | 7.8 | 0.00 | 0.01 | 0.01 | 59 | 1013.9 |
| 20260906020557 | 85 | 49 | 2.6 | 6.1 | 0.00 | 0.01 | 0.01 | 59 | 1014.0 |
| 20260906020107 | 85 | 10 | 1.7 | 6.1 | 0.00 | 0.01 | 0.01 | 59 | 1014.1 |
| 20260906015558 | 85 | 54 | 1.7 | 6.1 | 0.00 | 0.01 | 0.01 | 58 | 1014.1 |
| 20260906015058 | 85 | 45 | 1.7 | 6.1 | 0.00 | 0.01 | 0.01 | 58 | 1014.3 |
| 20260906014556 | 84 | 56 | 2.6 | 6.1 | 0.00 | 0.01 | 0.01 | 59 | 1014.4 |
| 20260906014057 | 84 | 323 | 2.6 | 6.1 | 0.00 | 0.01 | 0.01 | 58 | 1014.4 |
| 20260906013814 | 84 | 8 | 1.7 | 5.2 | 0.00 | 0.01 | 0.01 | 58 | 1014.5 |
| 20260906013050 | 84 | 63 | 1.7 | 5.2 | 0.00 | 0.01 | 0.01 | 59 | 1014.5 |
| 20260906012550 | 84 | 68 | 1.7 | 4.3 | 0.00 | 0.01 | 0.01 | 60 | 1014.6 |
| 20260906012050 | 84 | 48 | 1.7 | 6.1 | 0.00 | 0.01 | 0.01 | 59 | 1014.7 |
| 20260906011550 | 84 | 353 | 1.7 | 6.1 | 0.00 | 0.01 | 0.01 | 58 | 1014.8 |
| 20260906011048 | 83 | 313 | 2.6 | 7.0 | 0.00 | 0.01 | 0.01 | 57 | 1014.9 |
| 20260906010550 | 83 | 326 | 2.6 | 7.0 | 0.00 | 0.01 | 0.01 | 57 | 1015.0 |
| 20260906010028 | 83 | 47 | 2.6 | 5.2 | 0.00 | 0.01 | 0.01 | 58 | 1015.0 |
| 20260906005529 | 83 | 48 | 2.6 | 6.1 | 0.00 | 0.01 | 0.01 | 59 | 1015.1 |
| 20260906005233 | 83 | 314 | 2.6 | 6.1 | 0.00 | 0.01 | 0.01 | 58 | 1015.3 |
| 20260906004513 | 84 | 14 | 2.6 | 6.1 | 0.00 | 0.01 | 0.01 | 59 | 1015.3 |
| 20260906004007 | 83 | 55 | 1.7 | 5.2 | 0.00 | 0.01 | 0.01 | 58 | 1015.4 |
| 20260906003508 | 83 | 353 | 1.7 | 5.2 | 0.00 | 0.01 | 0.01 | 59 | 1015.5 |
| 20260906003019 | 83 | 70 | 1.7 | 4.3 | 0.00 | 0.01 | 0.01 | 59 | 1015.6 |
| 20260906002946 | 82 | 26 | 1.7 | 5.2 | 0.00 | 0.01 | 0.01 | 59 | 1015.6 |
| 20260906002000 | 82 | 66 | 1.7 | 5.2 | 0.00 | 0.01 | 0.01 | 59 | 1015.7 |
| 20260906001458 | 82 | 333 | 1.7 | 3.5 | 0.00 | 0.01 | 0.01 | 59 | 1015.8 |
| 20260906000957 | 82 | 19 | 1.7 | 4.3 | 0.00 | 0.01 | 0.01 | 60 | 1015.8 |
| 20260906000456 | 81 | 55 | 1.7 | 4.3 | 0.00 | 0.01 | 0.01 | 61 | 1015.8 |
| 20260905235954 | 81 | 58 | 0.9 | 3.5 | 0.00 | 0.01 | 0.01 | 61 | 1015.8 |
| 20260905235454 | 80 | 1 | 1.7 | 4.3 | 0.00 | 0.01 | 0.01 | 61 | 1015.9 |
| 20260905234954 | 80 | 13 | 1.7 | 4.3 | 0.00 | 0.01 | 0.01 | 62 | 1015.9 |
| 20260905234451 | 80 | 337 | 1.7 | 4.3 | 0.00 | 0.01 | 0.01 | 62 | 1015.9 |
| 20260905233954 | 79 | 13 | 0.9 | 6.1 | 0.00 | 0.01 | 0.01 | 64 | 1015.9 |
| 20260905233427 | 79 | 31 | 1.7 | 6.1 | 0.00 | 0.01 | 0.01 | 65 | 1015.7 |
| 20260905233149 | 78 | 358 | 1.7 | 6.1 | 0.00 | 0.01 | 0.01 | 65 | 1015.7 |
| 20260905232427 | 78 | 352 | 1.7 | 6.1 | 0.00 | 0.01 | 0.01 | 66 | 1015.8 |
| 20260905231926 | 77 | 35 | 2.6 | 6.1 | 0.00 | 0.01 | 0.01 | 68 | 1015.7 |
| 20260905231649 | 76 | 341 | 3.5 | 6.1 | 0.00 | 0.01 | 0.01 | 67 | 1015.6 |
| 20260905230926 | 76 | 344 | 3.5 | 8.7 | 0.00 | 0.01 | 0.01 | 69 | 1015.7 |
| 20260905230428 | 75 | 15 | 3.5 | 8.7 | 0.00 | 0.01 | 0.01 | 70 | 1015.6 |
| 20260905225924 | 75 | 25 | 3.5 | 7.0 | 0.00 | 0.01 | 0.01 | 72 | 1015.6 |
| 20260905225425 | 74 | 326 | 3.5 | 7.0 | 0.00 | 0.01 | 0.01 | 74 | 1015.8 |
| 20260905225144 | 74 | 347 | 2.6 | 5.2 | 0.00 | 0.01 | 0.01 | 77 | 1016.0 |
| 20260905224644 | 73 | 357 | 1.7 | 5.2 | 0.00 | 0.01 | 0.01 | 79 | 1016.1 |
| 20260905223924 | 72 | 1 | 0.9 | 2.6 | 0.00 | 0.01 | 0.01 | 83 | 1016.2 |
| 20260905223407 | 71 | 332 | 0.9 | 2.6 | 0.00 | 0.01 | 0.01 | 85 | 1016.2 |
| 20260905222906 | 71 | 327 | 0.9 | 2.6 | 0.00 | 0.01 | 0.01 | 86 | 1016.5 |
| 20260905222403 | 70 | 324 | 0.9 | 3.5 | 0.00 | 0.01 | 0.01 | 88 | 1016.5 |
| 20260905221904 | 69 | 330 | 0.9 | 3.5 | 0.00 | 0.01 | 0.01 | 89 | 1016.5 |
| 20260905221400 | 68 | 327 | 0.9 | 2.6 | 0.00 | 0.01 | 0.01 | 91 | 1016.5 |
| 20260905221119 | 68 | 327 | 0.9 | 2.6 | 0.00 | 0.01 | 0.01 | 92 | 1016.6 |
| 20260905220357 | 67 | 322 | 0.9 | 3.5 | 0.00 | 0.01 | 0.01 | 92 | 1016.5 |
| 20260905215859 | 67 | 229 | 0.9 | 3.5 | 0.00 | 0.01 | 0.01 | 93 | 1016.5 |
| 20260905215356 | 67 | 278 | 0.0 | 2.6 | 0.00 | 0.01 | 0.01 | 93 | 1016.5 |
| 20260905214855 | 66 | 281 | 0.9 | 1.7 | 0.00 | 0.01 | 0.01 | 94 | 1016.5 |
| 20260905214358 | 66 | 314 | 0.0 | 2.6 | 0.00 | 0.01 | 0.01 | 94 | 1016.2 |
| 20260905213850 | 66 | 314 | 0.9 | 3.5 | 0.00 | 0.01 | 0.01 | 94 | 1016.1 |
| 20260905213347 | 65 | 315 | 0.9 | 3.5 | 0.00 | 0.01 | 0.01 | 94 | 1015.9 |
| 20260905212846 | 65 | 319 | 0.9 | 3.5 | 0.00 | 0.01 | 0.01 | 95 | 1015.8 |
| 20260905212610 | 65 | 318 | 0.9 | 3.5 | 0.00 | 0.01 | 0.01 | 95 | 1015.8 |
| 20260905211836 | 65 | 324 | 1.7 | 5.2 | 0.00 | 0.01 | 0.01 | 95 | 1015.8 |
| 20260905211600 | 64 | 306 | 1.7 | 5.2 | 0.00 | 0.01 | 0.01 | 95 | 1015.8 |
| 20260905210835 | 64 | 301 | 1.7 | 3.5 | 0.00 | 0.01 | 0.01 | 95 | 1015.6 |
| 20260905210600 | 63 | 310 | 0.9 | 3.5 | 0.00 | 0.01 | 0.01 | 95 | 1015.6 |
| 20260905205832 | 63 | 335 | 0.0 | 2.6 | 0.00 | 0.01 | 0.01 | 95 | 1015.4 |
| 20260905205331 | 62 | 351 | 0.9 | 2.6 | 0.00 | 0.01 | 0.01 | 95 | 1015.5 |
| 20260905204827 | 62 | 352 | 0.9 | 2.6 | 0.00 | 0.01 | 0.01 | 95 | 1015.2 |
| 20260905204328 | 62 | 259 | 0.0 | 1.7 | 0.00 | 0.01 | 0.01 | 94 | 1015.4 |
| 20260905204027 | 62 | 258 | 0.0 | 0.0 | 0.00 | 0.01 | 0.01 | 94 | 1015.6 |
| 20260905203909 | 62 | 258 | 0.0 | 1.7 | 0.00 | 0.01 | 0.01 | 94 | 1015.5 |
| 20260905202818 | 62 | 258 | 0.0 | 0.0 | 0.00 | 0.01 | 0.01 | 94 | 1015.6 |
| 20260905202317 | 62 | 258 | 0.0 | 0.0 | 0.00 | 0.01 | 0.01 | 94 | 1015.8 |
| 20260905201750 | 62 | 258 | 0.0 | 0.0 | 0.00 | 0.01 | 0.01 | 94 | 1015.8 |
| 20260905201721 | 62 | 258 | 0.0 | 0.0 | 0.00 | 0.01 | 0.01 | 94 | 1015.9 |
| 20260905200952 | 62 | 258 | 0.0 | 0.0 | 0.00 | 0.01 | 0.01 | 94 | 1015.9 |
| 20260905200219 | 62 | 258 | 0.0 | 0.9 | 0.00 | 0.01 | 0.01 | 94 | 1015.8 |
| 20260905195722 | 62 | 258 | 0.0 | 0.9 | 0.00 | 0.01 | 0.01 | 94 | 1015.7 |
| 20260905195430 | 62 | 258 | 0.0 | 0.0 | 0.00 | 0.01 | 0.01 | 94 | 1015.9 |
| 20260905194929 | 62 | 258 | 0.0 | 0.0 | 0.00 | 0.01 | 0.01 | 94 | 1015.8 |
| 20260905194144 | 62 | 258 | 0.0 | 0.0 | 0.00 | 0.01 | 0.01 | 94 | 1015.8 |
| 20260905193644 | 62 | 258 | 0.0 | 0.0 | 0.00 | 0.01 | 0.01 | 94 | 1015.9 |
| 20260905193135 | 62 | 258 | 0.0 | 1.7 | 0.00 | 0.01 | 0.01 | 94 | 1015.9 |
| 20260905192634 | 62 | 258 | 0.0 | 1.7 | 0.00 | 0.01 | 0.01 | 94 | 1015.7 |
| 20260905192132 | 62 | 258 | 0.0 | 2.6 | 0.00 | 0.01 | 0.01 | 94 | 1015.9 |
| 20260905191630 | 62 | 258 | 0.9 | 2.6 | 0.00 | 0.01 | 0.01 | 94 | 1016.1 |
| 20260905191140 | 62 | 270 | 0.0 | 2.6 | 0.00 | 0.01 | 0.01 | 94 | 1016.0 |
| 20260905190848 | 62 | 14 | 0.0 | 0.9 | 0.00 | 0.01 | 0.01 | 94 | 1015.6 |
| 20260905190124 | 62 | 14 | 0.0 | 0.9 | 0.00 | 0.01 | 0.01 | 94 | 1015.6 |
| 20260905185623 | 61 | 14 | 0.0 | 1.7 | 0.00 | 0.01 | 0.01 | 94 | 1015.6 |
| 20260905185116 | 61 | 14 | 0.0 | 1.7 | 0.00 | 0.01 | 0.01 | 94 | 1015.5 |
| 20260905184613 | 61 | 14 | 0.0 | 1.7 | 0.00 | 0.01 | 0.01 | 94 | 1015.5 |
| 20260905184111 | 61 | 14 | 0.0 | 1.7 | 0.00 | 0.01 | 0.01 | 94 | 1015.6 |
| 20260905183613 | 61 | 10 | 0.0 | 0.9 | 0.00 | 0.01 | 0.01 | 94 | 1015.8 |
| 20260905183052 | 61 | 9 | 0.0 | 0.9 | 0.00 | 0.01 | 0.01 | 93 | 1015.9 |
| 20260905182553 | 61 | 9 | 0.0 | 0.9 | 0.00 | 0.01 | 0.01 | 93 | 1015.7 |
| 20260905182046 | 61 | 9 | 0.0 | 0.9 | 0.00 | 0.01 | 0.01 | 93 | 1015.9 |
| 20260905181555 | 61 | 9 | 0.0 | 0.9 | 0.00 | 0.01 | 0.01 | 93 | 1015.5 |
| 20260905181323 | 61 | 9 | 0.0 | 0.9 | 0.00 | 0.01 | 0.01 | 93 | 1015.4 |
| 20260905180543 | 61 | 9 | 0.0 | 1.7 | 0.00 | 0.01 | 0.01 | 93 | 1015.3 |
| 20260905180305 | 61 | 9 | 0.9 | 2.6 | 0.00 | 0.01 | 0.01 | 93 | 1015.4 |
| 20260905175541 | 60 | 10 | 0.0 | 2.6 | 0.00 | 0.01 | 0.01 | 93 | 1015.4 |
| 20260905175038 | 60 | 10 | 0.0 | 0.0 | 0.00 | 0.01 | 0.01 | 93 | 1015.3 |
| 20260905174538 | 60 | 10 | 0.0 | 0.0 | 0.00 | 0.01 | 0.01 | 93 | 1015.0 |
| 20260905174034 | 60 | 10 | 0.0 | 0.0 | 0.00 | 0.01 | 0.01 | 93 | 1014.9 |
| 20260905173531 | 60 | 10 | 0.0 | 0.0 | 0.00 | 0.01 | 0.01 | 92 | 1014.8 |
| 20260905173030 | 61 | 10 | 0.0 | 0.9 | 0.00 | 0.01 | 0.01 | 92 | 1014.8 |
| 20260905172531 | 61 | 10 | 0.0 | 0.9 | 0.00 | 0.01 | 0.01 | 92 | 1014.9 |
| 20260905172227 | 61 | 10 | 0.0 | 0.9 | 0.00 | 0.01 | 0.01 | 92 | 1014.9 |
| 20260905171438 | 61 | 10 | 0.0 | 1.7 | 0.00 | 0.02 | 0.01 | 92 | 1014.9 |
| 20260905170910 | 61 | 10 | 0.0 | 0.0 | 0.00 | 0.02 | 0.01 | 92 | 1014.8 |
| 20260905170559 | 61 | 10 | 0.0 | 0.0 | 0.00 | 0.02 | 0.01 | 92 | 1014.8 |
| 20260905170039 | 61 | 10 | 0.0 | 0.0 | 0.00 | 0.02 | 0.01 | 92 | 1014.8 |
| 20260905165251 | 61 | 10 | 0.0 | 0.0 | 0.00 | 0.02 | 0.01 | 92 | 1014.7 |
| 20260905164743 | 61 | 10 | 0.0 | 0.0 | 0.01 | 0.02 | 0.01 | 92 | 1014.8 |
| 20260905164242 | 62 | 10 | 0.0 | 0.0 | 0.01 | 0.02 | 0.01 | 92 | 1014.8 |
| 20260905163737 | 62 | 10 | 0.0 | 0.0 | 0.01 | 0.02 | 0.01 | 92 | 1014.9 |
| 20260905163234 | 62 | 10 | 0.0 | 0.0 | 0.01 | 0.02 | 0.01 | 92 | 1014.9 |
| 20260905162731 | 62 | 10 | 0.0 | 0.0 | 0.01 | 0.02 | 0.01 | 92 | 1015.1 |
| 20260905162231 | 62 | 10 | 0.0 | 0.0 | 0.01 | 0.02 | 0.01 | 92 | 1015.1 |
| 20260905161732 | 62 | 10 | 0.0 | 0.0 | 0.01 | 0.02 | 0.01 | 92 | 1015.1 |
| 20260905161231 | 62 | 10 | 0.0 | 0.0 | 0.01 | 0.02 | 0.01 | 92 | 1015.1 |
| 20260905160958 | 62 | 10 | 0.0 | 0.0 | 0.01 | 0.02 | 0.01 | 92 | 1015.2 |
| 20260905160448 | 62 | 10 | 0.0 | 0.0 | 0.01 | 0.02 | 0.01 | 92 | 1015.2 |
| 20260905155921 | 63 | 10 | 0.0 | 0.0 | 0.01 | 0.02 | 0.01 | 92 | 1015.4 |
| 20260905155807 | 63 | 10 | 0.0 | 0.0 | 0.01 | 0.02 | 0.01 | 92 | 1015.3 |
| 20260905154939 | 63 | 10 | 0.0 | 0.0 | 0.00 | 0.01 | 0.00 | 92 | 1015.4 |
| 20260905154443 | 63 | 10 | 0.0 | 0.0 | 0.00 | 0.01 | 0.00 | 92 | 1015.5 |
| 20260905153720 | 63 | 10 | 0.0 | 0.9 | 0.00 | 0.01 | 0.00 | 92 | 1015.5 |
| 20260905153153 | 63 | 10 | 0.0 | 0.9 | 0.00 | 0.01 | 0.00 | 92 | 1015.5 |
| 20260905152627 | 64 | 10 | 0.0 | 0.9 | 0.00 | 0.01 | 0.00 | 92 | 1015.6 |
| 20260905152057 | 64 | 10 | 0.0 | 1.7 | 0.00 | 0.01 | 0.00 | 92 | 1015.7 |
| 20260905151529 | 64 | 10 | 0.0 | 0.9 | 0.00 | 0.01 | 0.00 | 92 | 1015.6 |
| 20260905151006 | 64 | 10 | 0.0 | 0.0 | 0.00 | 0.01 | 0.00 | 92 | 1015.6 |
| 20260905150655 | 64 | 10 | 0.0 | 0.0 | 0.00 | 0.01 | 0.00 | 92 | 1015.7 |
| 20260905150137 | 64 | 10 | 0.0 | 0.0 | 0.00 | 0.01 | 0.00 | 92 | 1015.7 |